FW7023 Weather Reports


Display with metric or nautical units.
time (UTC)temp
F
wind
direction
speed
MPH
gust
MPH
rain 1hr
in
rain 24hr
in
rain mn
in
humidity
%
barometer
mb
20260901095114 69 153 0.0 0.0 0.00 0.00 0.00 86 1014.5
20260901094609 70 158 0.0 0.0 0.00 0.00 0.00 87 1014.2
20260901094108 69 156 0.0 0.0 0.00 0.00 0.00 88 1014.6
20260901093603 69 152 0.0 0.0 0.00 0.00 0.00 88 1014.3
20260901093058 69 155 0.0 0.0 0.00 0.00 0.00 88 1014.3
20260901092554 70 156 0.0 0.0 0.00 0.00 0.00 87 1014.4
20260901092050 70 156 0.0 0.0 0.00 0.00 0.00 87 1014.2
20260901091546 70 156 0.0 0.0 0.00 0.00 0.00 87 1014.0
20260901091045 70 160 0.0 0.0 0.00 0.00 0.00 87 1014.1
20260901090545 70 161 0.0 0.0 0.00 0.00 0.00 88 1014.1
20260901090041 70 157 0.0 0.0 0.00 0.00 0.00 87 1014.2
20260901085536 70 157 0.0 0.0 0.00 0.00 0.00 87 1014.1
20260901085032 71 157 0.0 0.0 0.00 0.00 0.00 86 1014.0
20260901084528 71 160 0.0 0.0 0.00 0.00 0.00 85 1014.2
20260901084024 71 158 0.0 0.0 0.00 0.00 0.00 85 1014.1
20260901083518 71 151 0.0 1.0 0.00 0.00 0.00 85 1013.9
20260901083016 71 170 0.0 0.0 0.00 0.00 0.00 84 1013.9
20260901082512 71 169 0.0 1.0 0.00 0.00 0.00 82 1013.9
20260901082007 71 167 1.0 1.0 0.00 0.00 0.00 82 1013.7
20260901081502 71 163 1.0 1.0 0.00 0.00 0.00 83 1013.6
20260901080957 70 150 0.0 0.0 0.00 0.00 0.00 83 1014.1
20260901080456 71 156 0.0 0.0 0.00 0.00 0.00 84 1014.1
20260901075956 71 158 0.0 0.0 0.00 0.00 0.00 86 1014.0
20260901075452 71 158 0.0 0.0 0.00 0.00 0.00 85 1014.0
20260901074950 71 157 0.0 0.0 0.00 0.00 0.00 84 1014.0
20260901074445 72 159 0.0 0.0 0.00 0.00 0.00 83 1014.1
20260901073940 72 159 0.0 0.0 0.00 0.00 0.00 84 1014.0
20260901073437 72 159 0.0 0.0 0.00 0.00 0.00 82 1014.0
20260901072937 72 159 0.0 0.0 0.00 0.00 0.00 81 1014.2
20260901072432 72 159 0.0 0.0 0.00 0.00 0.00 79 1014.1
20260901071927 72 161 0.0 0.0 0.00 0.00 0.00 79 1014.1
20260901071426 72 161 0.0 0.0 0.00 0.00 0.00 78 1014.0
20260901070926 72 160 0.0 0.0 0.00 0.00 0.00 79 1014.2
20260901070421 73 162 0.0 0.0 0.00 0.00 0.00 78 1014.1
20260901065920 73 164 0.0 0.0 0.00 0.00 0.00 77 1014.3
20260901065416 73 161 0.0 0.0 0.00 0.00 0.00 77 1014.2
20260901064911 73 161 0.0 0.0 0.00 0.00 0.00 77 1014.1
20260901064407 73 162 0.0 0.0 0.00 0.00 0.00 77 1014.0
20260901063904 73 159 0.0 0.0 0.00 0.00 0.00 76 1014.0
20260901063400 73 162 0.0 0.0 0.00 0.00 0.00 76 1014.2
20260901062856 74 167 0.0 0.0 0.00 0.00 0.00 76 1014.3
20260901062351 74 164 0.0 0.0 0.00 0.00 0.00 76 1014.2
20260901061841 74 158 0.0 0.0 0.00 0.00 0.00 76 1014.2
20260901061336 75 156 0.0 0.0 0.00 0.00 0.00 76 1014.5
20260901060832 75 160 0.0 0.0 0.00 0.00 0.00 76 1014.4
20260901060328 75 163 0.0 0.0 0.00 0.00 0.00 76 1014.3
20260901055827 75 162 0.0 0.0 0.00 0.00 0.00 75 1014.3
20260901055323 75 166 0.0 0.0 0.00 0.00 0.00 74 1014.3
20260901054820 75 162 0.0 0.0 0.00 0.00 0.00 74 1014.0
20260901054317 75 165 0.0 0.0 0.00 0.00 0.00 74 1014.2
20260901053813 76 166 0.0 0.0 0.00 0.00 0.00 74 1014.2
20260901053308 76 164 0.0 0.0 0.00 0.00 0.00 74 1014.2
20260901052803 76 166 0.0 0.0 0.00 0.00 0.00 73 1014.3
20260901052258 76 164 0.0 0.0 0.00 0.00 0.00 74 1014.1
20260901051757 76 164 0.0 0.0 0.00 0.00 0.00 74 1014.3
20260901051252 77 161 0.0 0.0 0.00 0.00 0.00 75 1014.1
20260901050742 77 161 0.0 0.0 0.00 0.00 0.00 74 1014.0
20260901050237 78 161 0.0 0.0 0.00 0.00 0.00 73 1013.9
20260901045732 78 163 0.0 0.0 0.00 0.00 0.00 72 1013.9
20260901045226 78 158 0.0 0.0 0.00 0.00 0.00 72 1013.7
20260901044722 78 159 0.0 0.0 0.00 0.00 0.00 72 1014.0
20260901044219 79 158 0.0 0.0 0.00 0.00 0.00 71 1013.8
20260901043714 80 162 0.0 0.0 0.00 0.00 0.00 69 1013.8
20260901043209 80 168 0.0 0.0 0.00 0.00 0.00 68 1013.7
20260901042708 81 159 0.0 0.0 0.00 0.00 0.00 66 1013.9
20260901042203 82 157 0.0 0.0 0.00 0.00 0.00 63 1013.7
20260901041700 83 172 0.0 0.0 0.00 0.00 0.00 61 1013.7
20260901041159 84 165 1.0 1.0 0.00 0.00 0.00 59 1013.6
20260901040654 84 169 0.0 0.0 0.00 0.00 0.00 56 1013.9
20260901040153 85 178 0.0 0.0 0.00 0.00 0.00 50 1013.6
20260901035652 85 168 0.0 0.0 0.00 0.00 0.00 51 1013.7
20260901035150 86 167 0.0 0.0 0.00 0.00 0.00 51 1013.8
20260901034650 86 186 0.0 0.0 0.00 0.00 0.00 51 1013.8
20260901034144 86 187 1.0 1.0 0.00 0.00 0.00 48 1013.6
20260901033644 86 138 0.0 0.0 0.00 0.00 0.00 49 1013.8
20260901033143 86 177 1.0 1.0 0.00 0.00 0.00 49 1013.6
20260901032643 86 184 1.0 1.0 0.00 0.00 0.00 49 1013.6
20260901032137 86 167 0.0 1.0 0.00 0.00 0.00 50 1013.4
20260901031632 85 166 1.0 2.0 0.00 0.00 0.00 49 1013.5
20260901031129 85 166 0.0 0.0 0.00 0.00 0.00 52 1013.6
20260901030628 84 154 0.0 0.0 0.00 0.00 0.00 53 1013.5
20260901030124 85 164 0.0 0.0 0.00 0.00 0.00 55 1013.5
20260901025618 84 164 0.0 0.0 0.00 0.00 0.00 52 1013.4
20260901025112 82 190 1.0 2.0 0.00 0.00 0.00 58 1013.5
20260901024607 82 183 1.0 1.0 0.00 0.00 0.00 64 1013.4
20260901024106 82 158 0.0 0.0 0.00 0.00 0.00 67 1013.3
20260901023605 82 180 0.0 1.0 0.00 0.00 0.00 71 1013.2
20260901023100 82 157 0.0 0.0 0.00 0.00 0.00 70 1013.3
20260901022555 82 159 0.0 0.0 0.00 0.00 0.00 68 1013.1
20260901022050 82 165 0.0 0.0 0.00 0.00 0.00 67 1013.2
20260901021546 82 161 0.0 0.0 0.00 0.00 0.00 65 1013.1
20260901021041 82 169 0.0 0.0 0.00 0.00 0.00 63 1013.0
20260901020536 82 169 0.0 0.0 0.00 0.00 0.00 63 1013.0
20260901020032 83 166 0.0 0.0 0.00 0.00 0.00 63 1013.1
20260901015527 83 170 0.0 0.0 0.00 0.00 0.00 62 1012.9
20260901015026 83 168 0.0 0.0 0.00 0.00 0.00 62 1013.0
20260901014522 83 169 0.0 0.0 0.00 0.00 0.00 61 1012.9
20260901014019 84 169 0.0 0.0 0.00 0.00 0.00 61 1013.0
20260901013514 84 171 0.0 0.0 0.00 0.00 0.00 60 1012.8
20260901013009 84 166 0.0 0.0 0.00 0.00 0.00 59 1013.1
20260901012509 85 164 0.0 1.0 0.00 0.00 0.00 58 1012.7
20260901012004 85 170 0.0 0.0 0.00 0.00 0.00 59 1012.7
20260901011500 85 169 0.0 1.0 0.00 0.00 0.00 58 1012.5
20260901010958 86 172 0.0 0.0 0.00 0.00 0.00 59 1012.6
20260901010448 86 168 0.0 0.0 0.00 0.00 0.00 57 1012.6
20260901005947 86 168 0.0 0.0 0.00 0.00 0.00 57 1012.4
20260901005442 87 168 0.0 0.0 0.00 0.00 0.00 57 1012.4
20260901004937 87 171 0.0 1.0 0.00 0.00 0.00 56 1012.4
20260901004436 87 174 0.0 1.0 0.00 0.00 0.00 56 1012.4
20260901003931 88 170 0.0 0.0 0.00 0.00 0.00 55 1012.4
20260901003426 88 177 1.0 2.0 0.00 0.00 0.00 55 1012.4
20260901002924 89 180 1.0 1.0 0.00 0.00 0.00 54 1012.3
20260901002424 89 172 0.0 1.0 0.00 0.00 0.00 54 1012.5
20260901001919 89 173 1.0 1.0 0.00 0.00 0.00 54 1012.2
20260901001414 90 169 0.0 1.0 0.00 0.00 0.00 53 1012.4
20260901000909 90 171 0.0 0.0 0.00 0.00 0.00 53 1012.4
20260901000405 91 172 0.0 0.0 0.00 0.00 0.00 51 1012.4
20260831235903 92 175 0.0 0.0 0.00 0.00 0.00 50 1012.2
20260831235400 93 169 0.0 0.0 0.00 0.00 0.00 47 1012.3
20260831234859 93 170 0.0 0.0 0.00 0.00 0.00 48 1012.3
20260831234354 93 186 1.0 1.0 0.00 0.00 0.00 49 1012.5
20260831233850 94 177 1.0 1.0 0.00 0.00 0.00 48 1012.1
20260831233345 95 194 2.0 2.0 0.00 0.00 0.00 45 1012.3
20260831232840 95 168 0.0 0.0 0.00 0.00 0.00 41 1012.2
20260831232336 96 179 1.0 1.0 0.00 0.00 0.00 40 1012.2
20260831231832 98 181 1.0 1.0 0.00 0.00 0.00 41 1012.2
20260831231328 98 191 1.0 2.0 0.00 0.00 0.00 39 1012.1
20260831230823 99 170 0.0 0.0 0.00 0.00 0.00 36 1012.1
20260831230318 99 191 0.0 1.0 0.00 0.00 0.00 36 1012.3
20260831225817 100 180 2.0 3.0 0.00 0.00 0.00 35 1012.2
20260831225312 101 180 0.0 1.0 0.00 0.00 0.00 35 1012.2
20260831224808 101 236 2.0 2.0 0.00 0.00 0.00 34 1012.3
20260831224303 101 196 2.0 2.0 0.00 0.00 0.00 34 1012.3
20260831223758 102 152 0.0 0.0 0.00 0.00 0.00 33 1012.1
20260831223254 102 150 1.0 2.0 0.00 0.00 0.00 33 1012.3
20260831222750 102 182 0.0 1.0 0.00 0.00 0.00 32 1012.5
20260831222246 103 180 0.0 0.0 0.00 0.00 0.00 32 1012.3
20260831221741 102 14 3.0 5.0 0.00 0.00 0.00 32 1012.4
20260831221236 102 121 2.0 2.0 0.00 0.00 0.00 31 1012.5
20260831220732 103 193 3.0 5.0 0.00 0.00 0.00 31 1012.5
20260831220226 102 200 1.0 1.0 0.00 0.00 0.00 32 1012.4
20260831215727 103 167 1.0 3.0 0.00 0.00 0.00 32 1012.2
20260831215223 102 169 0.0 0.0 0.00 0.00 0.00 32 1012.4
20260831214720 102 172 3.0 5.0 0.00 0.00 0.00 31 1012.4
20260831214216 102 214 2.0 2.0 0.00 0.00 0.00 32 1012.4
20260831213711 101 163 1.0 1.0 0.00 0.00 0.00 33 1012.5
20260831213207 102 176 3.0 3.0 0.00 0.00 0.00 34 1012.2
20260831212702 102 201 4.0 5.0 0.00 0.00 0.00 33 1012.6
20260831212159 100 204 2.0 2.0 0.00 0.00 0.00 34 1012.3
20260831211658 101 183 4.0 8.0 0.00 0.00 0.00 33 1012.5
20260831211153 101 221 7.0 11.0 0.00 0.00 0.00 34 1012.4
20260831210648 101 163 1.0 2.0 0.00 0.00 0.00 35 1012.4
20260831210144 101 204 7.0 8.0 0.00 0.00 0.00 34 1012.5
20260831205643 100 181 1.0 2.0 0.00 0.00 0.00 35 1012.4
20260831205139 100 197 2.0 3.0 0.00 0.00 0.00 35 1012.5
20260831204639 101 165 5.0 7.0 0.00 0.00 0.00 35 1012.3
20260831204138 100 103 3.0 3.0 0.00 0.00 0.00 36 1012.4
20260831203637 101 211 4.0 6.0 0.00 0.00 0.00 35 1012.7
20260831203132 101 217 6.0 9.0 0.00 0.00 0.00 35 1012.7
20260831202631 100 92 1.0 2.0 0.00 0.00 0.00 36 1012.5
20260831202125 101 194 3.0 5.0 0.00 0.00 0.00 35 1012.5
20260831201625 101 210 3.0 3.0 0.00 0.00 0.00 36 1012.7
20260831201119 100 169 2.0 2.0 0.00 0.00 0.00 36 1012.6
20260831200616 100 204 6.0 7.0 0.00 0.00 0.00 36 1012.6
20260831200109 100 164 1.0 2.0 0.00 0.00 0.00 36 1012.7
20260831195605 100 193 4.0 5.0 0.00 0.00 0.00 37 1012.8
20260831195100 101 222 5.0 8.0 0.00 0.00 0.00 36 1012.9
20260831194555 100 174 3.0 3.0 0.00 0.00 0.00 37 1012.8
20260831194050 100 166 1.0 1.0 0.00 0.00 0.00 38 1012.6
20260831193546 99 211 7.0 8.0 0.00 0.00 0.00 38 1012.7
20260831193045 98 196 1.0 2.0 0.00 0.00 0.00 39 1013.0
20260831192540 98 226 6.0 8.0 0.00 0.00 0.00 39 1012.9
20260831192036 98 206 5.0 6.0 0.00 0.00 0.00 39 1012.8
20260831191531 97 237 3.0 3.0 0.00 0.00 0.00 39 1013.0
20260831191027 97 185 3.0 3.0 0.00 0.00 0.00 39 1013.1
20260831190523 97 183 3.0 3.0 0.00 0.00 0.00 40 1012.7
20260831190021 98 203 7.0 11.0 0.00 0.00 0.00 38 1013.0
20260831185517 98 288 0.0 1.0 0.00 0.00 0.00 40 1013.2
20260831185012 98 302 1.0 3.0 0.00 0.00 0.00 39 1013.1
20260831184506 97 48 3.0 3.0 0.00 0.00 0.00 40 1013.1
20260831184002 96 161 3.0 5.0 0.00 0.00 0.00 41 1013.1
20260831183501 96 214 5.0 6.0 0.00 0.00 0.00 41 1013.2
20260831183001 96 192 2.0 2.0 0.00 0.00 0.00 41 1013.2
20260831182456 97 200 2.0 3.0 0.00 0.00 0.00 40 1013.3
20260831181951 96 176 1.0 1.0 0.00 0.00 0.00 40 1013.4
20260831181446 97 20 4.0 6.0 0.00 0.00 0.00 39 1013.4
20260831180941 99 174 0.0 1.0 0.00 0.00 0.00 37 1013.4
20260831180436 98 198 1.0 2.0 0.00 0.00 0.00 37 1013.4
20260831175935 98 161 2.0 3.0 0.00 0.00 0.00 38 1013.6
20260831175431 97 188 1.0 2.0 0.00 0.00 0.00 39 1013.4
20260831174927 97 237 4.0 6.0 0.00 0.00 0.00 39 1013.6
20260831174422 98 174 5.0 6.0 0.00 0.00 0.00 38 1013.6
20260831173921 98 203 2.0 2.0 0.00 0.00 0.00 39 1013.8
20260831173420 98 159 1.0 2.0 0.00 0.00 0.00 39 1013.8
20260831172916 96 69 3.0 3.0 0.00 0.00 0.00 41 1013.8
20260831172412 96 174 2.0 2.0 0.00 0.00 0.00 42 1013.8
20260831171912 96 194 2.0 2.0 0.00 0.00 0.00 42 1013.7
20260831171408 95 146 5.0 8.0 0.00 0.00 0.00 42 1013.9
20260831170905 94 213 3.0 6.0 0.00 0.00 0.00 44 1014.0
20260831170401 95 204 3.0 6.0 0.00 0.00 0.00 42 1014.0
20260831165857 95 171 0.0 1.0 0.00 0.00 0.00 43 1014.2
20260831165353 94 307 1.0 2.0 0.00 0.00 0.00 44 1014.2
20260831164849 94 168 1.0 2.0 0.00 0.00 0.00 44 1014.4
20260831164345 93 164 5.0 10.0 0.00 0.00 0.00 46 1014.2
20260831163840 93 215 4.0 5.0 0.00 0.00 0.00 47 1014.4
20260831163336 93 230 3.0 3.0 0.00 0.00 0.00 45 1014.3
20260831162834 92 136 1.0 3.0 0.00 0.00 0.00 47 1014.3
20260831162330 91 105 2.0 3.0 0.00 0.00 0.00 47 1014.3
20260831161828 91 210 7.0 8.0 0.00 0.00 0.00 46 1014.6
20260831161325 91 207 4.0 5.0 0.00 0.00 0.00 47 1014.5
20260831160820 92 97 0.0 1.0 0.00 0.00 0.00 46 1014.5
20260831160314 91 218 5.0 7.0 0.00 0.00 0.00 46 1014.4
20260831155809 91 172 1.0 1.0 0.00 0.00 0.00 47 1014.4
20260831155306 90 203 3.0 3.0 0.00 0.00 0.00 47 1014.3
20260831154759 90 199 4.0 8.0 0.00 0.00 0.00 47 1013.9
20260831154255 89 166 1.0 2.0 0.00 0.00 0.00 49 1014.4
20260831153753 89 234 2.0 5.0 0.00 0.00 0.00 48 1014.3
20260831153249 89 188 6.0 9.0 0.00 0.00 0.00 48 1014.4
20260831152745 89 168 0.0 1.0 0.00 0.00 0.00 50 1014.4
20260831152242 88 187 2.0 2.0 0.00 0.00 0.00 50 1014.5
20260831151741 87 83 2.0 3.0 0.00 0.00 0.00 51 1014.2
20260831151241 87 229 2.0 2.0 0.00 0.00 0.00 52 1014.3
20260831150736 87 226 2.0 3.0 0.00 0.00 0.00 51 1014.6
20260831150232 87 206 5.0 6.0 0.00 0.00 0.00 51 1014.4
20260831145731 86 179 4.0 6.0 0.00 0.00 0.00 53 1014.2
20260831145227 86 230 3.0 5.0 0.00 0.00 0.00 53 1014.4
20260831144722 86 168 1.0 1.0 0.00 0.00 0.00 54 1014.1
20260831144219 86 200 1.0 2.0 0.00 0.00 0.00 54 1014.2
20260831143718 85 143 2.0 3.0 0.00 0.00 0.00 54 1014.2
20260831143214 86 191 2.0 3.0 0.00 0.00 0.00 54 1014.1
20260831142709 85 183 1.0 3.0 0.00 0.00 0.00 55 1014.5
20260831142205 84 165 3.0 3.0 0.00 0.00 0.00 56 1014.1
20260831141704 85 304 2.0 3.0 0.00 0.00 0.00 56 1014.3
20260831141159 84 150 0.0 1.0 0.00 0.00 0.00 55 1014.3
20260831140658 83 170 1.0 1.0 0.00 0.00 0.00 58 1014.1
20260831140153 82 207 2.0 2.0 0.00 0.00 0.00 58 1014.3
20260831135651 81 196 3.0 5.0 0.00 0.00 0.00 60 1014.2
20260831135147 81 171 1.0 1.0 0.00 0.00 0.00 60 1014.5
20260831134643 81 161 2.0 2.0 0.00 0.00 0.00 60 1014.6
20260831134138 80 190 2.0 2.0 0.00 0.00 0.00 60 1014.4
20260831133637 80 186 2.0 2.0 0.00 0.00 0.00 60 1014.5
20260831133132 80 202 4.0 5.0 0.00 0.00 0.00 61 1014.4
20260831132628 80 191 3.0 5.0 0.00 0.00 0.00 61 1014.5
20260831132127 79 169 0.0 0.0 0.00 0.00 0.00 61 1014.3
20260831131622 79 163 0.0 0.0 0.00 0.00 0.00 61 1014.2
20260831131118 79 182 0.0 0.0 0.00 0.00 0.00 61 1014.3
20260831130613 79 159 0.0 0.0 0.00 0.00 0.00 61 1014.4
20260831130109 79 168 1.0 2.0 0.00 0.00 0.00 62 1014.2
20260831125607 78 222 1.0 1.0 0.00 0.00 0.00 62 1013.9
20260831125103 78 196 1.0 1.0 0.00 0.00 0.00 62 1014.2
20260831124559 78 170 0.0 1.0 0.00 0.00 0.00 62 1014.0
20260831124054 78 212 1.0 1.0 0.00 0.00 0.00 63 1014.0
20260831123554 78 164 0.0 0.0 0.00 0.00 0.00 63 1013.6
20260831123049 77 179 0.0 1.0 0.00 0.00 0.00 63 1014.0
20260831122548 77 174 1.0 1.0 0.00 0.00 0.00 63 1014.0
20260831122044 77 174 1.0 1.0 0.00 0.00 0.00 64 1013.7
20260831121538 77 171 0.0 1.0 0.00 0.00 0.00 64 1013.8
20260831121035 77 167 0.0 0.0 0.00 0.00 0.00 64 1013.8
20260831120534 77 193 2.0 2.0 0.00 0.00 0.00 64 1013.6
20260831120030 77 164 0.0 0.0 0.00 0.00 0.00 64 1013.5
20260831115526 77 173 0.0 0.0 0.00 0.00 0.00 64 1013.6
20260831115021 77 191 1.0 2.0 0.00 0.00 0.00 64 1013.6
20260831114519 77 165 1.0 1.0 0.00 0.00 0.00 64 1013.4
20260831114014 77 166 0.0 1.0 0.00 0.00 0.00 63 1013.7
20260831113513 77 165 0.0 0.0 0.00 0.00 0.00 63 1013.6
20260831113009 77 153 0.0 1.0 0.00 0.00 0.00 63 1013.5
20260831112503 78 151 1.0 2.0 0.00 0.00 0.00 63 1013.5
20260831111958 78 179 3.0 3.0 0.00 0.00 0.00 62 1013.3
20260831111455 78 157 0.0 1.0 0.00 0.00 0.00 62 1013.4
20260831110950 78 213 2.0 2.0 0.00 0.00 0.00 61 1013.3
20260831110445 78 159 1.0 2.0 0.00 0.00 0.00 61 1013.4
20260831105944 78 214 7.0 9.0 0.00 0.00 0.00 61 1013.3
20260831105439 78 243 2.0 2.0 0.00 0.00 0.00 60 1013.2
20260831104934 79 186 3.0 3.0 0.00 0.00 0.00 60 1013.1
20260831104430 79 167 1.0 1.0 0.00 0.00 0.00 60 1012.9
20260831103926 79 175 1.0 1.0 0.00 0.00 0.00 59 1013.0
20260831103420 79 174 2.0 2.0 0.00 0.00 0.00 59 1013.0
20260831102915 79 166 2.0 3.0 0.00 0.00 0.00 59 1012.7
20260831102410 79 198 4.0 5.0 0.00 0.00 0.00 59 1012.7
20260831101905 79 178 1.0 2.0 0.00 0.00 0.00 59 1012.6
20260831101400 79 193 3.0 3.0 0.00 0.00 0.00 59 1012.6
20260831100856 79 193 3.0 5.0 0.00 0.00 0.00 59 1012.7
20260831100352 80 210 3.0 3.0 0.00 0.00 0.00 58 1012.5
20260831095852 80 204 4.0 5.0 0.00 0.00 0.00 58 1012.7